TimeEST,TemperatureF,Dew PointF,Humidity,Sea Level PressureIn,VisibilityMPH,Wind Direction,Wind SpeedMPH,Gust SpeedMPH,PrecipitationIn,Events,Conditions,WindDirDegrees,DateUTC
12:15 AM,42.8,39.2,87,30.11,10.0,NNW,3.5,-,N/A,,Clear,330,2012-11-21 05:15:00
12:35 AM,42.8,39.2,87,30.10,10.0,North,3.5,-,N/A,,Clear,360,2012-11-21 05:35:00
12:55 AM,42.8,37.4,81,30.10,10.0,North,3.5,-,N/A,,Clear,350,2012-11-21 05:55:00
1:15 AM,41.0,37.4,87,30.10,8.0,North,3.5,-,N/A,,Clear,350,2012-11-21 06:15:00
1:35 AM,41.0,37.4,87,30.09,8.0,North,3.5,-,N/A,,Clear,350,2012-11-21 06:35:00
1:55 AM,41.0,39.2,93,30.09,8.0,Calm,Calm,-,N/A,,Clear,0,2012-11-21 06:55:00
2:15 AM,42.8,39.2,87,30.09,10.0,Calm,Calm,-,N/A,,Clear,0,2012-11-21 07:15:00
2:35 AM,42.8,37.4,81,30.09,10.0,Calm,Calm,-,N/A,,Clear,0,2012-11-21 07:35:00
2:55 AM,39.2,35.6,87,30.09,9.0,NNW,3.5,-,N/A,,Clear,330,2012-11-21 07:55:00
3:15 AM,39.2,37.4,93,30.10,7.0,Calm,Calm,-,N/A,,Clear,0,2012-11-21 08:15:00
3:35 AM,39.2,35.6,87,30.09,6.0,NNW,5.8,-,N/A,,Clear,330,2012-11-21 08:35:00
3:55 AM,39.2,35.6,87,30.10,8.0,North,4.6,-,N/A,,Clear,350,2012-11-21 08:55:00
4:15 AM,39.2,35.6,87,30.10,8.0,North,3.5,-,N/A,,Clear,350,2012-11-21 09:15:00
4:35 AM,41.0,35.6,81,30.10,7.0,North,4.6,-,N/A,,Clear,350,2012-11-21 09:35:00
4:55 AM,39.2,37.4,93,30.10,7.0,North,5.8,-,N/A,,Clear,350,2012-11-21 09:55:00
5:15 AM,39.2,37.4,93,30.11,7.0,NNW,5.8,-,N/A,,Clear,340,2012-11-21 10:15:00
5:35 AM,39.2,35.6,87,30.11,6.0,North,4.6,-,N/A,,Clear,350,2012-11-21 10:35:00
5:55 AM,39.2,35.6,87,30.11,5.0,North,5.8,-,N/A,,Clear,360,2012-11-21 10:55:00
6:15 AM,37.4,35.6,93,30.12,5.0,Calm,Calm,-,N/A,,Clear,0,2012-11-21 11:15:00
6:35 AM,39.2,35.6,87,30.12,5.0,North,3.5,-,N/A,,Clear,350,2012-11-21 11:35:00
6:55 AM,37.4,33.8,87,30.13,1.8,NNW,4.6,-,N/A,,Clear,330,2012-11-21 11:55:00
7:15 AM,37.4,33.8,87,30.13,3.0,North,4.6,-,N/A,,Clear,350,2012-11-21 12:15:00
7:35 AM,39.2,35.6,87,30.14,3.0,North,4.6,-,N/A,,Clear,350,2012-11-21 12:35:00
7:55 AM,42.8,37.4,81,30.14,5.0,NNW,5.8,-,N/A,,Clear,340,2012-11-21 12:55:00
8:15 AM,44.6,41.0,87,30.15,6.0,North,3.5,-,N/A,,Clear,360,2012-11-21 13:15:00
8:35 AM,46.4,42.8,87,30.16,8.0,North,4.6,-,N/A,,Clear,10,2012-11-21 13:35:00
8:55 AM,46.4,42.8,87,30.17,10.0,North,6.9,-,N/A,,Clear,350,2012-11-21 13:55:00
9:15 AM,48.2,42.8,82,30.17,10.0,NNW,8.1,-,N/A,,Clear,340,2012-11-21 14:15:00
9:35 AM,51.8,46.4,82,30.17,10.0,North,6.9,-,N/A,,Clear,360,2012-11-21 14:35:00
9:55 AM,51.8,44.6,76,30.17,10.0,NNE,9.2,-,N/A,,Clear,30,2012-11-21 14:55:00
10:15 AM,53.6,44.6,72,30.17,10.0,North,9.2,-,N/A,,Clear,10,2012-11-21 15:15:00
10:35 AM,55.4,44.6,67,30.17,10.0,North,8.1,-,N/A,,Clear,10,2012-11-21 15:35:00
10:55 AM,55.4,44.6,67,30.16,10.0,NNE,12.7,17.3,N/A,,Clear,20,2012-11-21 15:55:00
11:15 AM,57.2,44.6,63,30.16,10.0,NNE,11.5,16.1,N/A,,Clear,20,2012-11-21 16:15:00
11:35 AM,57.2,42.8,59,30.15,10.0,NE,6.9,-,N/A,,Clear,40,2012-11-21 16:35:00
11:55 AM,57.2,39.2,51,30.14,10.0,North,12.7,-,N/A,,Clear,350,2012-11-21 16:55:00
12:15 PM,59.0,41.0,51,30.14,10.0,North,13.8,18.4,N/A,,Clear,10,2012-11-21 17:15:00
12:35 PM,60.8,39.2,45,30.12,10.0,NNE,8.1,-,N/A,,Clear,20,2012-11-21 17:35:00
12:55 PM,60.8,39.2,45,30.12,10.0,North,9.2,-,N/A,,Clear,360,2012-11-21 17:55:00
1:15 PM,59.0,39.2,48,30.12,10.0,NNW,9.2,-,N/A,,Clear,340,2012-11-21 18:15:00
1:35 PM,57.2,39.2,51,30.12,10.0,NNW,9.2,-,N/A,,Clear,340,2012-11-21 18:35:00
1:55 PM,59.0,39.2,48,30.11,10.0,North,8.1,-,N/A,,Clear,350,2012-11-21 18:55:00
2:15 PM,60.8,39.2,45,30.11,10.0,North,8.1,-,N/A,,Clear,360,2012-11-21 19:15:00
2:35 PM,60.8,37.4,42,30.11,10.0,NNW,11.5,-,N/A,,Clear,340,2012-11-21 19:35:00
2:55 PM,62.6,37.4,39,30.10,10.0,North,9.2,17.3,N/A,,Clear,10,2012-11-21 19:55:00
3:15 PM,62.6,37.4,39,30.11,10.0,North,12.7,-,N/A,,Clear,10,2012-11-21 20:15:00
3:35 PM,62.6,37.4,39,30.10,10.0,North,10.4,18.4,N/A,,Clear,10,2012-11-21 20:35:00
3:55 PM,60.8,37.4,42,30.10,10.0,North,6.9,-,N/A,,Clear,10,2012-11-21 20:55:00
4:15 PM,60.8,37.4,42,30.10,10.0,North,5.8,-,N/A,,Clear,10,2012-11-21 21:15:00
4:35 PM,60.8,37.4,42,30.10,10.0,North,4.6,-,N/A,,Clear,10,2012-11-21 21:35:00
4:55 PM,59.0,35.6,42,30.11,10.0,NNW,5.8,-,N/A,,Clear,340,2012-11-21 21:55:00
5:15 PM,55.4,35.6,47,30.11,10.0,North,5.8,-,N/A,,Clear,350,2012-11-21 22:15:00
5:35 PM,53.6,35.6,51,30.12,10.0,North,5.8,-,N/A,,Clear,350,2012-11-21 22:35:00
5:55 PM,51.8,37.4,58,30.12,10.0,North,4.6,-,N/A,,Clear,10,2012-11-21 22:55:00
6:15 PM,50.0,37.4,62,30.13,10.0,North,5.8,-,N/A,,Clear,10,2012-11-21 23:15:00
6:35 PM,46.4,35.6,66,30.13,10.0,North,4.6,-,N/A,,Clear,350,2012-11-21 23:35:00
6:55 PM,44.6,35.6,71,30.14,10.0,NNW,5.8,-,N/A,,Clear,340,2012-11-21 23:55:00
7:15 PM,44.6,35.6,71,30.14,10.0,North,5.8,-,N/A,,Clear,350,2012-11-22 00:15:00
7:35 PM,42.8,35.6,76,30.15,10.0,NNW,5.8,-,N/A,,Clear,330,2012-11-22 00:35:00
7:55 PM,42.8,37.4,81,30.15,10.0,North,5.8,-,N/A,,Clear,360,2012-11-22 00:55:00
8:15 PM,42.8,37.4,81,30.16,10.0,North,5.8,-,N/A,,Clear,10,2012-11-22 01:15:00
8:35 PM,44.6,35.6,71,30.16,10.0,NNE,6.9,-,N/A,,Clear,20,2012-11-22 01:35:00
8:55 PM,46.4,35.6,66,30.16,10.0,NNE,5.8,-,N/A,,Clear,20,2012-11-22 01:55:00
9:15 PM,44.6,35.6,71,30.17,10.0,NNE,5.8,-,N/A,,Clear,20,2012-11-22 02:15:00
9:35 PM,44.6,35.6,71,30.17,10.0,NNE,4.6,-,N/A,,Clear,30,2012-11-22 02:35:00
9:55 PM,42.8,35.6,76,30.18,10.0,NNE,5.8,-,N/A,,Clear,20,2012-11-22 02:55:00
10:15 PM,42.8,35.6,76,30.18,10.0,NNE,5.8,-,N/A,,Clear,20,2012-11-22 03:15:00
10:35 PM,39.2,35.6,87,30.18,10.0,North,5.8,-,N/A,,Clear,10,2012-11-22 03:35:00
10:55 PM,41.0,35.6,81,30.17,10.0,NNE,6.9,-,N/A,,Clear,20,2012-11-22 03:55:00
11:15 PM,42.8,33.8,70,30.17,10.0,North,6.9,-,N/A,,Clear,10,2012-11-22 04:15:00
11:35 PM,42.8,35.6,76,30.17,10.0,North,5.8,-,N/A,,Clear,360,2012-11-22 04:35:00
11:55 PM,42.8,32.0,66,30.17,10.0,North,6.9,-,N/A,,Clear,350,2012-11-22 04:55:00